When you browse on this site, cookies collect data to enhance your experience and personalize the content and advertising you see.
Visit our Privacy Policy to learn more. By continuing to use the site, you agree to this use of cookies and data.
  • Em Portugal
  • Lista de países
  • Para 7 dias
  • Temperatura da água
  • Mapa do tempo
  • Widgets de tempo
  • user-avatar
    Iniciar Sessão

    Previsão horária em Elizavetino

    Hoje, 24 Janeiro, Sexta-feira

    Tempo Temperatura Precipitação Vento Pressão Humidade
    00:00 -8°C° 0 mm 3 m/s 746 mmHg 83%
    01:00 -8°C° 0 mm 3 m/s 746 mmHg 83%
    02:00 -8°C° 0 mm 3 m/s 745 mmHg 83%
    03:00 -8°C° 0 mm 3 m/s 745 mmHg 82%
    04:00 -8°C° 0 mm 3 m/s 745 mmHg 83%
    05:00 -7°C° 0 mm 3 m/s 744 mmHg 84%
    06:00 -7°C° 0 mm 3 m/s 744 mmHg 85%
    07:00 -8°C° 0 mm 4 m/s 743 mmHg 85%
    08:00 -8°C° 0 mm 4 m/s 743 mmHg 86%
    09:00 -7°C° 0 mm 4 m/s 742 mmHg 86%
    10:00 -7°C° 0.1 mm 5 m/s 741 mmHg 88%
    11:00 -6°C° 0.1 mm 5 m/s 741 mmHg 89%
    12:00 -5°C° 0.1 mm 6 m/s 740 mmHg 90%
    13:00 -4°C° 0.2 mm 6 m/s 739 mmHg 90%
    14:00 -4°C° 0.2 mm 6 m/s 738 mmHg 90%
    15:00 -3°C° 0.2 mm 6 m/s 738 mmHg 90%
    16:00 -2°C° 0.3 mm 5 m/s 737 mmHg 92%
    17:00 -1°C° 0.3 mm 5 m/s 736 mmHg 94%
    18:00 -1°C° 0.3 mm 5 m/s 736 mmHg 97%
    19:00 -1°C° 0.3 mm 5 m/s 736 mmHg 96%
    20:00 0°C° 0.3 mm 5 m/s 735 mmHg 96%
    21:00 0°C° 0.3 mm 5 m/s 735 mmHg 96%
    22:00 0°C° 0.1 mm 5 m/s 735 mmHg 93%
    23:00 0°C° 0.1 mm 4 m/s 735 mmHg 91%

    Amanhã, 25 Janeiro, Sábado

    Tempo Temperatura Precipitação Vento Pressão Humidade
    00:00 -1°C° 0.1 mm 4 m/s 735 mmHg 89%
    01:00 -1°C° 0 mm 4 m/s 735 mmHg 91%
    02:00 -1°C° 0 mm 3 m/s 735 mmHg 92%
    03:00 -2°C° 0 mm 3 m/s 736 mmHg 94%
    04:00 -1°C° 0.1 mm 3 m/s 735 mmHg 94%
    05:00 -1°C° 0.1 mm 3 m/s 735 mmHg 95%
    06:00 -1°C° 0.1 mm 4 m/s 735 mmHg 95%
    07:00 -1°C° 0 mm 4 m/s 735 mmHg 93%
    08:00 -2°C° 0 mm 4 m/s 735 mmHg 91%
    09:00 -1°C° 0 mm 3 m/s 735 mmHg 90%
    10:00 -2°C° 0 mm 4 m/s 735 mmHg 88%
    11:00 -1°C° 0 mm 4 m/s 734 mmHg 86%
    12:00 -1°C° 0 mm 4 m/s 734 mmHg 84%
    13:00 -1°C° 0.1 mm 5 m/s 733 mmHg 83%
    14:00 -1°C° 0.1 mm 6 m/s 733 mmHg 83%
    15:00 -1°C° 0.1 mm 6 m/s 732 mmHg 82%
    16:00 -2°C° 0.2 mm 6 m/s 732 mmHg 79%
    17:00 -3°C° 0.2 mm 6 m/s 733 mmHg 76%
    18:00 -3°C° 0.2 mm 6 m/s 733 mmHg 73%
    19:00 -4°C° 0 mm 6 m/s 733 mmHg 73%
    20:00 -4°C° 0 mm 6 m/s 734 mmHg 73%
    21:00 -5°C° 0 mm 6 m/s 735 mmHg 72%
    22:00 -5°C° 0 mm 6 m/s 735 mmHg 73%
    23:00 -5°C° 0 mm 6 m/s 736 mmHg 74%

    Depois de amanhã, 26 Janeiro, Domingo

    Tempo Temperatura Precipitação Vento Pressão Humidade
    00:00 -5°C° 0 mm 6 m/s 736 mmHg 75%
    01:00 -5°C° 0 mm 6 m/s 737 mmHg 75%
    02:00 -6°C° 0 mm 7 m/s 737 mmHg 75%
    03:00 -6°C° 0 mm 7 m/s 738 mmHg 74%
    04:00 -6°C° 0 mm 7 m/s 739 mmHg 75%
    05:00 -6°C° 0 mm 6 m/s 740 mmHg 76%
    06:00 -6°C° 0 mm 6 m/s 741 mmHg 78%
    07:00 -6°C° 0 mm 5 m/s 742 mmHg 78%
    08:00 -6°C° 0 mm 5 m/s 743 mmHg 79%
    09:00 -7°C° 0 mm 4 m/s 743 mmHg 79%
    10:00 -5°C° 0 mm 4 m/s 744 mmHg 77%
    11:00 -4°C° 0 mm 4 m/s 745 mmHg 74%
    12:00 -4°C° 0 mm 4 m/s 745 mmHg 72%
    13:00 -4°C° 0 mm 4 m/s 745 mmHg 73%
    14:00 -3°C° 0 mm 4 m/s 745 mmHg 74%
    15:00 -3°C° 0 mm 4 m/s 745 mmHg 75%
    16:00 -3°C° 0 mm 4 m/s 745 mmHg 77%
    17:00 -4°C° 0 mm 4 m/s 745 mmHg 78%
    18:00 -4°C° 0 mm 4 m/s 744 mmHg 80%
    19:00 -5°C° 0 mm 5 m/s 744 mmHg 83%
    20:00 -4°C° 0 mm 5 m/s 743 mmHg 86%
    21:00 -4°C° 0 mm 5 m/s 743 mmHg 89%
    22:00 -2°C° 0.1 mm 5 m/s 743 mmHg 90%
    23:00 -1°C° 0.1 mm 5 m/s 742 mmHg 91%

    27 Janeiro, Segunda-feira

    Tempo Temperatura Precipitação Vento Pressão Humidade
    00:00 0°C° 0.1 mm 5 m/s 742 mmHg 92%
    01:00 -1°C° 0 mm 6 m/s 742 mmHg 91%
    02:00 +1°C° 0 mm 6 m/s 742 mmHg 91%
    03:00 +1°C° 0 mm 6 m/s 742 mmHg 90%
    04:00 +1°C° 0 mm 6 m/s 742 mmHg 90%
    05:00 +1°C° 0 mm 5 m/s 743 mmHg 90%
    06:00 +1°C° 0 mm 5 m/s 743 mmHg 90%
    07:00 +1°C° 0 mm 5 m/s 743 mmHg 91%
    08:00 +1°C° 0 mm 5 m/s 744 mmHg 92%
    09:00 +1°C° 0 mm 4 m/s 744 mmHg 93%
    10:00 +1°C° 0 mm 4 m/s 745 mmHg 94%
    11:00 0°C° 0 mm 4 m/s 745 mmHg 95%
    12:00 +1°C° 0 mm 3 m/s 746 mmHg 96%
    13:00 +1°C° 0.1 mm 3 m/s 746 mmHg 96%
    14:00 +1°C° 0.1 mm 3 m/s 746 mmHg 97%
    15:00 +2°C° 0.1 mm 2 m/s 746 mmHg 98%
    16:00 +2°C° 0.3 mm 2 m/s 746 mmHg 98%
    17:00 +1°C° 0.3 mm 2 m/s 747 mmHg 98%
    18:00 +1°C° 0.3 mm 2 m/s 747 mmHg 98%
    19:00 +1°C° 0.6 mm 2 m/s 747 mmHg 98%
    20:00 -1°C° 0.6 mm 2 m/s 748 mmHg 98%
    21:00 -1°C° 0.6 mm 2 m/s 748 mmHg 97%
    22:00 -1°C° 0.4 mm 2 m/s 748 mmHg 97%
    23:00 -1°C° 0.4 mm 2 m/s 748 mmHg 97%

    28 Janeiro, Terça-feira

    Tempo Temperatura Precipitação Vento Pressão Humidade
    00:00 -2°C° 0.4 mm 2 m/s 748 mmHg 97%
    01:00 -1°C° 0.3 mm 2 m/s 748 mmHg 97%
    02:00 -1°C° 0.3 mm 2 m/s 748 mmHg 97%
    03:00 -1°C° 0.3 mm 2 m/s 748 mmHg 97%
    04:00 +1°C° 0.3 mm 1 m/s 748 mmHg 98%
    05:00 +1°C° 0.3 mm 1 m/s 748 mmHg 98%
    06:00 +1°C° 0.3 mm 1 m/s 748 mmHg 98%
    07:00 +1°C° 0.3 mm 1 m/s 748 mmHg 98%
    08:00 +1°C° 0.3 mm 1 m/s 748 mmHg 98%
    09:00 +1°C° 0.3 mm 1 m/s 748 mmHg 98%
    10:00 +1°C° 0.3 mm 1 m/s 748 mmHg 98%
    11:00 +1°C° 0.3 mm 1 m/s 748 mmHg 98%
    12:00 +2°C° 0.3 mm 1 m/s 748 mmHg 98%
    13:00 +2°C° 0.1 mm 1 m/s 748 mmHg 98%
    14:00 +2°C° 0.1 mm 1 m/s 748 mmHg 98%
    15:00 +2°C° 0.1 mm 1 m/s 748 mmHg 98%
    16:00 +1°C° 0.1 mm 1 m/s 748 mmHg 98%
    17:00 +1°C° 0.1 mm 1 m/s 748 mmHg 98%
    18:00 +1°C° 0.1 mm 1 m/s 749 mmHg 98%
    19:00 -1°C° 0.1 mm 2 m/s 749 mmHg 98%
    20:00 -1°C° 0.1 mm 2 m/s 749 mmHg 98%
    21:00 -1°C° 0.1 mm 2 m/s 749 mmHg 98%
    22:00 -1°C° 0.1 mm 2 m/s 749 mmHg 98%
    23:00 -1°C° 0.1 mm 2 m/s 749 mmHg 98%

    29 Janeiro, Quarta-feira

    Tempo Temperatura Precipitação Vento Pressão Humidade
    00:00 -1°C° 0.1 mm 2 m/s 749 mmHg 98%
    01:00 -1°C° 0.1 mm 2 m/s 749 mmHg 97%
    02:00 -1°C° 0.1 mm 2 m/s 749 mmHg 97%
    03:00 -1°C° 0.1 mm 2 m/s 749 mmHg 97%
    04:00 -1°C° 0 mm 3 m/s 749 mmHg 97%
    05:00 -1°C° 0 mm 3 m/s 749 mmHg 96%
    06:00 -1°C° 0 mm 3 m/s 749 mmHg 95%
    07:00 -1°C° 0 mm 3 m/s 748 mmHg 95%
    08:00 -1°C° 0 mm 3 m/s 748 mmHg 96%
    09:00 -1°C° 0 mm 3 m/s 748 mmHg 96%
    10:00 -1°C° 0.1 mm 3 m/s 748 mmHg 96%
    11:00 -1°C° 0.1 mm 3 m/s 748 mmHg 96%
    12:00 -1°C° 0.1 mm 3 m/s 748 mmHg 96%
    13:00 -1°C° 0.1 mm 3 m/s 748 mmHg 96%
    14:00 -2°C° 0.1 mm 4 m/s 747 mmHg 95%
    15:00 -1°C° 0.1 mm 4 m/s 747 mmHg 95%
    16:00 -2°C° 0 mm 4 m/s 747 mmHg 95%
    17:00 -2°C° 0 mm 4 m/s 747 mmHg 94%
    18:00 -2°C° 0 mm 4 m/s 747 mmHg 94%
    19:00 -2°C° 0 mm 4 m/s 747 mmHg 93%
    20:00 -2°C° 0 mm 4 m/s 746 mmHg 93%
    21:00 -3°C° 0 mm 4 m/s 746 mmHg 92%
    22:00 -3°C° 0.1 mm 4 m/s 746 mmHg 92%
    23:00 -3°C° 0.1 mm 4 m/s 745 mmHg 92%
    Mostrar mais